User: anonymous   Login
Location: Caltech
(34.1382°N, 118.1253°W)
Time: 09:59:06
(UTC-07:00)
Language:

AO-Echo - Orbit

View from above orbital plane
View from above orbital plane
View from above satellite
View from above satellite

Ground track
Ground track

The orbit data is extracted from the following two-line orbital elements,

1 28375U 04025K   17142.75733874 +.00000014 +00000-0 +17593-4 0  9999
2 28375 098.3578 076.7445 0082668 001.0924 359.0432 14.41838592678097
Epoch (UTC): 22 May 2017 18:10:34
Eccentricity: 0.0082668
inclination: 98.3578°
perigee height: 693 km
apogee height: 811 km
right ascension of ascending node: 76.7445°
argument of perigee: 1.0924°
revolutions per day: 14.41838592
mean anomaly at epoch: 359.0432°
orbit number at epoch: 67809

The dashed part of the orbit path shows where the satellite is in the earth's shadow,  

DLR